Location: Baumgarten
(49.0970°N, 12.7493°E)
Time: 08:32:36
(UTC+00:00)

Cosmos 1842 Rocket - Pass Details

Date: 05 July 2020
Orbit: 604 x 635 km, 82.5° (Epoch: 04 August)

Event Time Altitude Azimuth Distance (km) Brightness Sun altitude
Rises 21:39:49 0° 344° (NNW) 2,888 8.8 -15.2°
Reaches altitude 10° 21:42:07 10° 338° (NNW) 1,975 7.5 -15.4°
Maximum altitude 21:46:15 43° 267° (W) 861 4.4 -15.6°
Enters shadow 21:49:01 19° 204° (SSW) 1,469 5.1 -15.8°
